Weather History for Aurora, IL

Change the Weather History Date:

Wednesday, October 2, 2013

  Actual Average Record
Temperature  
Mean Temperature 69 °F 56 °F  
Max Temperature 80 °F 68 °F 83 °F (2005)
Min Temperature 58 °F 43 °F 19 °F (2003)
Degree Days  
Heating Degree Days 0 10  
Month to date heating degree days 0 20  
Since 1 July heating degree days 129 173  
Cooling Degree Days 4 1  
Month to date cooling degree days 4 2  
Year to date cooling degree days 735 649  
Growing Degree Days 18 (Base 50)    
Moisture  
Dew Point 55 °F    
Average Humidity 66    
Maximum Humidity 100    
Minimum Humidity 32    
Precipitation  
Precipitation 0.00 in 0.12 in 1.40 in (2006)
Month to date precipitation 0.00 0.25  
Year to date precipitation 27.45 28.89  
Sea Level Pressure  
Sea Level Pressure 30.03 in    
Wind  
Wind Speed 5 mph (ENE)    
Max Wind Speed 14 mph    
Max Gust Speed 18 mph    
Visibility 5 miles    
Events Fog    
T = Trace of Precipitation, MM = Missing Value Source: NWS Daily Summary

Daily Weather History Graph

Daily Weather History Graph

Search for Another Location

Airport:

Trip Planner

Search our weather history database for the weather conditions in past years. The results will help you decide how hot, cold, wet, or windy it might be!

Date:

Astronomy

Oct. 02, 2013 Rise Set
Actual Time 6:52 AM CDT 6:33 PM CDT
Civil Twilight 6:24 AM CDT 7:01 PM CDT
Nautical Twilight 5:52 AM CDT 7:33 PM CDT
Astronomical Twilight 5:19 AM CDT 8:05 PM CDT
Moon 4:23 AM CDT (10/2) 5:10 PM CDT (10/2)
Length of Visible Light 12h 36m
Length of Day
11h 41m
Waning Crescent, 6% of the Moon is Illuminated
Oct 2
Waning Crescent
Oct 4
New
Oct 11
First Quarter
Oct 18
Full
Oct 26
Last Quarter

Hourly Weather History & Observations

Time (CDT) Temp. Dew Point Humidity Pressure Visibility Wind Dir Wind Speed Gust Speed Precip Events Conditions
12:52 AM 62.1 °F 60.1 °F 93% 29.99 in 2.0 mi Calm Calm - N/A   Clear
12:57 AM 60.8 °F 60.8 °F 100% 30.00 in 0.8 mi Calm Calm - N/A   Mist
1:35 AM 59.0 °F 57.2 °F 94% 30.01 in 1.2 mi Calm Calm - N/A   Scattered Clouds
1:40 AM 60.8 °F 57.2 °F 88% 30.01 in 3.0 mi Calm Calm - N/A   Partly Cloudy
1:46 AM 59.0 °F 57.2 °F 94% 30.02 in 1.8 mi Calm Calm - N/A   Partly Cloudy
1:47 AM 59.0 °F 57.9 °F 96% 30.01 in 1.2 mi Calm Calm - N/A   Scattered Clouds
1:49 AM 59.0 °F 57.2 °F 94% 30.02 in 0.8 mi Calm Calm - N/A   Mist
1:58 AM 59.0 °F 57.2 °F 94% 30.02 in 1.2 mi Calm Calm - N/A   Scattered Clouds
2:11 AM 57.2 °F 57.2 °F 100% 30.02 in 1.0 mi Calm Calm - N/A   Mist
2:20 AM 59.0 °F 57.2 °F 94% 30.02 in 0.8 mi Calm Calm - N/A   Mist
2:29 AM 59.0 °F 57.2 °F 94% 30.02 in 0.2 mi Calm Calm - N/A Fog Fog
2:39 AM 59.0 °F 57.2 °F 94% 30.02 in 1.0 mi Calm Calm - N/A   Overcast
2:43 AM 59.0 °F 57.2 °F 94% 30.02 in 3.0 mi Calm Calm - N/A   Overcast
2:52 AM 59.0 °F 57.9 °F 96% 30.01 in 5.0 mi Calm Calm - N/A   Overcast
3:52 AM 62.1 °F 60.1 °F 93% 30.02 in 5.0 mi Calm Calm - N/A   Overcast
4:25 AM 60.8 °F 59.0 °F 94% 30.03 in 1.5 mi Calm Calm - N/A   Overcast
4:37 AM 60.8 °F 59.0 °F 94% 30.04 in 0.5 mi Calm Calm - N/A Fog Fog
4:50 AM 60.8 °F 59.0 °F 94% 30.04 in 0.2 mi Calm Calm - N/A Fog Fog
4:52 AM 60.1 °F 59.0 °F 96% 30.03 in 0.2 mi Calm Calm - N/A Fog Fog
5:00 AM 60.8 °F 59.0 °F 94% 30.04 in 0.2 mi Calm Calm - N/A Fog Fog
5:28 AM 60.8 °F 60.8 °F 100% 30.05 in 0.8 mi Calm Calm - N/A   Overcast
5:33 AM 60.8 °F 60.8 °F 100% 30.05 in 2.0 mi North 3.5 mph - N/A   Overcast
5:43 AM 60.8 °F 60.8 °F 100% 30.05 in 3.0 mi NNE 3.5 mph - N/A   Overcast
5:52 AM 61.0 °F 60.1 °F 97% 30.04 in 3.0 mi Calm Calm - N/A   Mostly Cloudy
6:04 AM 60.8 °F 59.0 °F 94% 30.06 in 2.5 mi Calm Calm - N/A   Scattered Clouds
6:12 AM 60.8 °F 57.2 °F 88% 30.06 in 0.8 mi Calm Calm - N/A   Partly Cloudy
6:32 AM 59.0 °F 57.2 °F 94% 30.05 in 2.0 mi NNE 3.5 mph - N/A   Mostly Cloudy
6:40 AM 60.8 °F 57.2 °F 88% 30.07 in 6.0 mi NNE 3.5 mph - N/A   Mostly Cloudy
6:52 AM 60.1 °F 57.9 °F 93% 30.06 in 8.0 mi NNE 4.6 mph - N/A   Overcast
7:52 AM 61.0 °F 55.9 °F 83% 30.08 in 10.0 mi NE 4.6 mph - N/A   Mostly Cloudy
8:52 AM 64.9 °F 54.0 °F 68% 30.09 in 10.0 mi NE 6.9 mph - N/A   Scattered Clouds
9:52 AM 71.1 °F 45.0 °F 39% 30.10 in 10.0 mi East 11.5 mph - N/A   Clear
10:52 AM 73.9 °F 44.1 °F 34% 30.09 in 10.0 mi East 9.2 mph - N/A   Clear
11:52 AM 75.9 °F 45.0 °F 33% 30.08 in 10.0 mi East 11.5 mph - N/A   Clear
12:52 PM 78.1 °F 46.0 °F 32% 30.06 in 10.0 mi ENE 8.1 mph 17.3 mph N/A   Clear
1:52 PM 79.0 °F 46.0 °F 31% 30.05 in 10.0 mi East 8.1 mph - N/A   Clear
2:52 PM 80.1 °F 48.0 °F 32% 30.03 in 10.0 mi ESE 9.2 mph - N/A   Clear
3:52 PM 80.1 °F 48.9 °F 34% 30.01 in 10.0 mi East 8.1 mph - N/A   Clear
4:52 PM 79.0 °F 48.9 °F 35% 30.00 in 10.0 mi ENE 9.2 mph - N/A   Clear
5:52 PM 73.9 °F 48.9 °F 41% 30.00 in 10.0 mi ENE 5.8 mph - N/A   Clear
6:52 PM 69.1 °F 48.9 °F 49% 30.01 in 10.0 mi East 4.6 mph - N/A   Partly Cloudy
7:52 PM 68.0 °F 48.0 °F 49% 30.00 in 10.0 mi ENE 3.5 mph - N/A   Partly Cloudy
8:52 PM 66.0 °F 46.0 °F 48% 30.01 in 10.0 mi East 6.9 mph - N/A   Clear
9:52 PM 64.9 °F 48.9 °F 56% 30.00 in 10.0 mi ESE 8.1 mph - N/A   Clear
10:52 PM 62.1 °F 51.1 °F 67% 30.00 in 10.0 mi Calm Calm - N/A   Clear
11:52 PM 59.0 °F 53.1 °F 81% 29.99 in 10.0 mi Calm Calm - N/A   Partly Cloudy